User: anonymous   Login
Location: Unspecified
(0.0000°N, 0.0000°E)
Time: 15:01:40
(UTC+02:00)
Language:

Cosmos 1315 Rocket - Orbit

View from above orbital plane
View from above orbital plane
View from above satellite
View from above satellite

Ground track
Ground track

The orbit data is extracted from the following two-line orbital elements,

1 12904U 81103B   16126.78441755  .00001236  00000-0  85047-4 0  9996
2 12904  81.1791  20.7225 0028200 327.6055  32.3435 15.04903616431545
Epoch (UTC): 05 May 2016 18:49:33
Eccentricity: 0.0028200
inclination: 81.1791°
perigee height: 532 km
apogee height: 571 km
right ascension of ascending node: 20.7225°
argument of perigee: 327.6055°
revolutions per day: 15.04903616
mean anomaly at epoch: 32.3435°
orbit number at epoch: 43154

The dashed part of the orbit path shows where the satellite is in the earth's shadow,  

DLR